Weather History for Monroe, LA

Change the Weather History Date:

Monday, December 23, 2013

  Actual Average Record
Temperature  
Mean Temperature 38 °F 47 °F  
Max Temperature 45 °F 58 °F 79 °F (1955)
Min Temperature 30 °F 36 °F 5 °F (1989)
Degree Days  
Heating Degree Days 27 18  
Month to date heating degree days 391 380  
Since 1 July heating degree days 871 752  
Cooling Degree Days 0 0  
Month to date cooling degree days 11 0  
Year to date cooling degree days 2444 2508  
Moisture  
Dew Point 28 °F    
Average Humidity 73    
Maximum Humidity 92    
Minimum Humidity 53    
Precipitation  
Precipitation 0.00 in 0.18 in 3.37 in (2002)
Month to date precipitation 3.26 3.97  
Year to date precipitation 50.31 52.70  
Snow  
Snow 0.00 in - - ()
Month to date snowfall T  
Since 1 July snowfall T  
Snow Depth 0.00 in    
Sea Level Pressure  
Sea Level Pressure 30.46 in    
Wind  
Wind Speed 8 mph (NNE)    
Max Wind Speed 17 mph    
Max Gust Speed 22 mph    
Visibility 10 miles    
Events      
T = Trace of Precipitation, MM = Missing Value Source: NWS Daily Summary

Daily Weather History Graph

Daily Weather History Graph

Search for Another Location

Airport:

Trip Planner

Search our weather history database for the weather conditions in past years. The results will help you decide how hot, cold, wet, or windy it might be!

Date:

Astronomy

Dec. 23, 2013 Rise Set
Actual Time 7:06 AM CST 5:07 PM CST
Civil Twilight 6:39 AM CST 5:35 PM CST
Nautical Twilight 6:09 AM CST 6:05 PM CST
Astronomical Twilight 5:38 AM CST 6:35 PM CST
Moon 10:58 PM CST (12/23) 10:50 AM CST (12/23)
Length of Visible Light 10h 55m
Length of Day
10h 00m
Waning Gibbous, 68% of the Moon is Illuminated
Dec 23
Waning Gibbous
Dec 25
Last Quarter
Jan 1
New
Jan 7
First Quarter
Jan 15
Full

Hourly Weather History & Observations

Time (CST) Temp. Windchill Dew Point Humidity Pressure Visibility Wind Dir Wind Speed Gust Speed Precip Events Conditions
12:53 AM 37.9 °F 30.5 °F 30.9 °F 76% 30.34 in 10.0 mi NNW 11.5 mph - N/A   Overcast
1:53 AM 37.9 °F 30.5 °F 30.9 °F 76% 30.34 in 10.0 mi NNW 11.5 mph - N/A   Overcast
2:53 AM 37.9 °F 29.6 °F 30.0 °F 73% 30.33 in 10.0 mi North 13.8 mph - N/A   Overcast
3:53 AM 37.0 °F 28.9 °F 28.9 °F 73% 30.35 in 10.0 mi NNW 12.7 mph - N/A   Overcast
4:53 AM 37.0 °F 29.3 °F 28.9 °F 73% 30.36 in 10.0 mi NNW 11.5 mph - N/A   Overcast
5:53 AM 36.0 °F 29.0 °F 28.0 °F 73% 30.38 in 10.0 mi North 9.2 mph - N/A   Overcast
6:53 AM 36.0 °F 28.0 °F 28.0 °F 73% 30.41 in 10.0 mi North 11.5 mph - N/A   Overcast
7:53 AM 36.0 °F 29.6 °F 28.9 °F 76% 30.45 in 10.0 mi NE 8.1 mph - N/A   Overcast
8:53 AM 37.0 °F 29.8 °F 28.0 °F 70% 30.48 in 10.0 mi NNE 10.4 mph - N/A   Overcast
9:53 AM 37.0 °F 29.3 °F 28.0 °F 70% 30.51 in 10.0 mi NE 11.5 mph - N/A   Overcast
10:53 AM 39.0 °F 30.6 °F 28.0 °F 65% 30.51 in 10.0 mi NE 15.0 mph 21.9 mph N/A   Mostly Cloudy
11:53 AM 41.0 °F 34.3 °F 28.9 °F 62% 30.50 in 10.0 mi NE 11.5 mph - N/A   Mostly Cloudy
12:26 PM 41.0 °F 35.8 °F 28.4 °F 61% 30.48 in 10.0 mi NNE 8.1 mph - N/A   Scattered Clouds
12:33 PM 41.0 °F 37.1 °F 28.4 °F 61% 30.47 in 10.0 mi Variable 5.8 mph - N/A   Mostly Cloudy
12:49 PM 41.0 °F 35.8 °F 28.4 °F 61% 30.47 in 10.0 mi North 8.1 mph - N/A   Mostly Cloudy
12:53 PM 42.1 °F 36.6 °F 28.0 °F 58% 30.48 in 10.0 mi NNE 9.2 mph - N/A   Mostly Cloudy
1:53 PM 44.1 °F 39.5 °F 28.0 °F 53% 30.47 in 10.0 mi NNE 8.1 mph - N/A   Scattered Clouds
2:53 PM 44.1 °F 40.1 °F 28.0 °F 53% 30.47 in 10.0 mi NE 6.9 mph - N/A   Clear
3:53 PM 44.1 °F 40.1 °F 28.0 °F 53% 30.48 in 10.0 mi North 6.9 mph - N/A   Clear
4:53 PM 41.0 °F 35.8 °F 27.0 °F 57% 30.49 in 10.0 mi North 8.1 mph - N/A   Clear
5:53 PM 37.9 °F 35.5 °F 28.0 °F 68% 30.51 in 10.0 mi NNE 3.5 mph - N/A   Clear
6:53 PM 35.1 °F - 28.9 °F 78% 30.51 in 10.0 mi Calm Calm - N/A   Clear
7:53 PM 35.1 °F - 28.0 °F 76% 30.53 in 10.0 mi Calm Calm - N/A   Clear
8:53 PM 34.0 °F 31.0 °F 28.0 °F 79% 30.54 in 10.0 mi NE 3.5 mph - N/A   Clear
9:53 PM 33.1 °F - 28.0 °F 82% 30.56 in 10.0 mi Calm Calm - N/A   Clear
10:53 PM 30.9 °F - 28.0 °F 89% 30.56 in 9.0 mi Calm Calm - N/A   Clear
11:53 PM 30.9 °F - 27.0 °F 85% 30.54 in 10.0 mi Calm Calm - N/A   Clear